Location: Newark
(50.5897°N, 2.4589°E)
Time: 12:35:38
(UTC+00:00)

ISS - Visible Passes

Search period start: 07 December 2019 00:00
Search period end: 17 December 2019 00:00
Orbit: 411 x 421 km, 51.6° (Epoch: 07 December)

Date Brightness Start Highest point End Pass type
(mag) Time Alt. Az. Time Alt. Az. Time Alt. Az.
07 Dec -3.8 16:36:36 10° WNW 16:39:58 88° SSW 16:43:20 10° ESE visible
07 Dec -2.0 18:13:32 10° W 18:16:28 28° SSW 18:17:01 26° SSW visible
08 Dec -2.5 17:24:56 10° W 17:28:06 39° SSW 17:31:04 11° SE visible
09 Dec -3.0 16:36:24 10° WNW 16:39:41 55° SSW 16:42:59 10° SE visible
09 Dec -0.8 18:14:05 10° WSW 18:15:54 14° SW 18:17:42 10° S visible
10 Dec -1.1 17:25:02 10° W 17:27:35 20° SW 17:30:10 10° SSE visible
11 Dec -1.6 16:36:17 10° W 16:39:15 29° SSW 16:42:13 10° SSE visible
13 Dec -0.5 16:36:39 10° WSW 16:38:36 15° SW 16:40:33 10° S visible
